Location: Vista Encantada
(35.1109°N, 106.5681°W)
Time: 20:25:26
(UTC+00:00)

Nauka - Pass Details

Date: 01 October 2021
Orbit: 417 x 423 km, 51.6° (Epoch: 22 October)

Event Time Altitude Azimuth Distance (km) Brightness Sun altitude
Rises 02:49:37 0° 324° (NW) 2,364 ? -24.9°
Reaches altitude 10° 02:52:09 10° 343° (NNW) 1,499 ? -25.4°
Enters shadow 02:52:35 12° 349° (N) 1,380 ? -25.5°
